KI0MQ Weather Reports


time (UTC)temp
C
wind
direction
speed
KPH
gust
KPH
rain 1hr
cm
rain 24hr
cm
rain mn
cm
humidity
%
barometer
mb
20260502224004 20 274 3.2 12.9 0.00 0.00 0.00 31 1015.3
20260502223503 20 220 3.2 9.7 0.00 0.00 0.00 33 1015.4
20260502223008 20 194 3.2 8.0 0.00 0.00 0.00 32 1015.5
20260502222004 20 232 3.2 6.4 0.00 0.00 0.00 33 1015.7
20260502221508 20 239 3.2 12.9 0.00 0.00 0.00 32 1015.8
20260502221003 20 271 1.6 12.9 0.00 0.00 0.00 31 1015.8
20260502220009 20 227 1.6 4.8 0.00 0.00 0.00 36 1016.0
20260502215503 19 235 1.6 4.8 0.00 0.00 0.00 32 1016.1
20260502214508 19 241 1.6 4.8 0.00 0.00 0.00 33 1016.2
20260502214003 19 231 1.6 9.7 0.00 0.00 0.00 33 1016.4
20260502213503 19 223 1.6 9.7 0.00 0.00 0.00 34 1016.4
20260502213008 19 273 3.2 9.7 0.00 0.00 0.00 34 1016.4
20260502212504 19 294 3.2 12.9 0.00 0.00 0.00 33 1016.5
20260502212004 19 244 1.6 12.9 0.00 0.00 0.00 34 1016.6
20260502211510 19 230 1.6 4.8 0.00 0.00 0.00 34 1016.7
20260502211003 19 252 1.6 8.0 0.00 0.00 0.00 36 1016.7
20260502210503 19 274 1.6 8.0 0.00 0.00 0.00 33 1016.8
20260502205503 19 247 1.6 6.4 0.00 0.00 0.00 32 1016.9
20260502205003 19 214 3.2 8.0 0.00 0.00 0.00 35 1017.0
20260502204508 19 199 3.2 8.0 0.00 0.00 0.00 33 1017.2
20260502204003 20 228 1.6 6.4 0.00 0.00 0.00 34 1017.2
20260502203009 19 334 1.6 8.0 0.00 0.00 0.00 32 1017.4
20260502202503 19 263 1.6 3.2 0.00 0.00 0.00 32 1017.5
20260502202003 19 282 1.6 9.7 0.00 0.00 0.00 33 1017.7
20260502201003 19 310 1.6 8.0 0.00 0.00 0.00 36 1017.7
20260502200008 20 240 3.2 6.4 0.00 0.00 0.00 33 1017.9
20260502195504 19 253 3.2 11.3 0.00 0.00 0.00 34 1018.0
20260502195004 18 290 3.2 14.5 0.00 0.00 0.00 40 1018.1
20260502194508 18 4 3.2 14.5 0.00 0.00 0.00 35 1018.2
20260502194003 18 352 3.2 11.3 0.00 0.00 0.00 35 1018.3
20260502193503 18 234 3.2 11.3 0.00 0.00 0.00 34 1018.4
20260502193009 18 246 3.2 11.3 0.00 0.00 0.00 36 1018.5
20260502192505 18 291 3.2 9.7 0.00 0.00 0.00 34 1018.6
20260502191508 18 301 1.6 11.3 0.00 0.00 0.00 35 1018.8
20260502191004 18 310 1.6 11.3 0.00 0.00 0.00 35 1018.9
20260502190503 17 313 3.2 14.5 0.00 0.00 0.00 36 1018.9
20260502190009 17 292 3.2 14.5 0.00 0.00 0.00 33 1019.1
20260502185003 18 277 3.2 12.9 0.00 0.00 0.00 35 1019.1
20260502184508 18 279 3.2 12.9 0.00 0.00 0.00 39 1019.1
20260502184003 17 318 1.6 12.9 0.00 0.00 0.00 36 1019.3
20260502183010 16 337 4.8 12.9 0.00 0.00 0.00 36 1019.4
20260502182503 17 343 3.2 12.9 0.00 0.00 0.00 40 1019.6
20260502182003 16 7 4.8 16.1 0.00 0.00 0.00 37 1019.6
20260502181508 16 340 4.8 16.1 0.00 0.00 0.00 39 1019.6
20260502180504 17 244 1.6 11.3 0.00 0.00 0.00 40 1019.7
20260502170504 14 355 4.8 11.3 0.00 0.00 0.00 43 1020.8
20260502164003 14 228 1.6 6.4 0.00 0.00 0.00 43 1020.7
20260502163504 13 339 3.2 11.3 0.00 0.00 0.00 46 1020.8
20260502163009 13 354 4.8 11.3 0.00 0.00 0.00 43 1020.8
20260502162003 13 289 1.6 12.9 0.00 0.00 0.00 41 1021.0
20260502161508 13 297 1.6 6.4 0.00 0.00 0.00 51 1021.0
20260502161003 13 302 1.6 6.4 0.00 0.00 0.00 47 1021.1
20260502160504 13 226 1.6 4.8 0.00 0.00 0.00 47 1021.2
20260502152003 11 306 1.6 8.0 0.00 0.00 0.00 52 1021.4
20260502150504 11 334 0.0 3.2 0.00 0.00 0.00 57 1021.4
20260502123504 0 0 0.0 0.0 0.00 0.00 0.00 93 1021.3
20260502123008 0 0 0.0 0.0 0.00 0.00 0.00 93 1021.2
20260502122505 0 0 0.0 0.0 0.00 0.00 0.00 93 1021.2
20260502122003 0 0 0.0 0.0 0.00 0.00 0.00 92 1021.1
20260502121508 0 0 0.0 0.0 0.00 0.00 0.00 92 1021.2
20260502121003 0 0 0.0 0.0 0.00 0.00 0.00 92 1021.1
20260502120504 0 0 0.0 0.0 0.00 0.00 0.00 92 1021.2
20260502115503 0 0 0.0 0.0 0.00 0.00 0.00 92 1021.1
20260502115004 0 0 0.0 0.0 0.00 0.00 0.00 91 1021.1
20260502114507 0 0 0.0 0.0 0.00 0.00 0.00 91 1021.1
20260502114003 0 0 0.0 0.0 0.00 0.00 0.00 91 1021.1
20260502113504 0 0 0.0 0.0 0.00 0.00 0.00 91 1021.1
20260502113008 0 0 0.0 0.0 0.00 0.00 0.00 91 1021.1
20260502112504 0 0 0.0 0.0 0.00 0.00 0.00 91 1021.1
20260502112003 0 0 0.0 0.0 0.00 0.00 0.00 91 1021.1
20260502111508 0 0 0.0 0.0 0.00 0.00 0.00 91 1021.0
20260502111003 0 0 0.0 0.0 0.00 0.00 0.00 91 1020.9
20260502110503 0 0 0.0 0.0 0.00 0.00 0.00 91 1020.9
20260502105504 0 0 0.0 0.0 0.00 0.00 0.00 90 1020.9
20260502105003 0 0 0.0 0.0 0.00 0.00 0.00 90 1020.9
20260502104508 0 0 0.0 0.0 0.00 0.00 0.00 90 1020.9
20260502103504 0 0 0.0 0.0 0.00 0.00 0.00 90 1020.9
20260502103009 0 0 0.0 0.0 0.00 0.00 0.00 90 1020.9
20260502102504 0 0 0.0 0.0 0.00 0.00 0.00 90 1020.8
20260502101508 0 0 0.0 0.0 0.00 0.00 0.00 90 1020.7
20260502091508 0 0 0.0 0.0 0.00 0.00 0.00 89 1020.6
20260502091003 0 0 0.0 0.0 0.00 0.00 0.00 89 1020.5
20260502090503 0 0 0.0 0.0 0.00 0.00 0.00 88 1020.5
20260502071507 1 0 0.0 0.0 0.00 0.00 0.00 86 1020.6
20260502071003 1 0 0.0 0.0 0.00 0.00 0.00 85 1020.6
20260502070503 1 0 0.0 0.0 0.00 0.00 0.00 85 1020.6
20260502070008 1 0 0.0 0.0 0.00 0.00 0.00 84 1020.7
20260502065503 1 0 0.0 0.0 0.00 0.00 0.00 84 1020.6
20260502065003 1 0 0.0 0.0 0.00 0.00 0.00 83 1020.7
20260502064508 1 0 0.0 0.0 0.00 0.00 0.00 82 1020.6
20260502064003 1 0 0.0 0.0 0.00 0.00 0.00 82 1020.6
20260502063505 2 0 0.0 0.0 0.00 0.00 0.00 82 1020.7
20260502063008 2 0 0.0 0.0 0.00 0.00 0.00 81 1020.7
20260502062004 2 0 0.0 0.0 0.00 0.00 0.00 81 1020.6
20260502061508 2 0 0.0 0.0 0.00 0.00 0.00 80 1020.6
20260502061004 2 0 0.0 0.0 0.00 0.00 0.00 79 1020.6
20260502060008 2 0 0.0 0.0 0.00 0.00 0.00 78 1020.5
20260502055503 2 0 0.0 0.0 0.00 0.00 0.00 78 1020.5
20260502055004 2 0 0.0 0.0 0.00 0.00 0.00 77 1020.5
20260502054003 3 0 0.0 0.0 0.00 0.00 0.00 76 1020.4
20260502053503 3 0 0.0 0.0 0.00 0.00 0.00 76 1020.3
20260502053008 3 0 0.0 0.0 0.00 0.00 0.00 76 1020.3
20260502052503 3 0 0.0 0.0 0.00 0.00 0.00 74 1020.4
20260502052004 3 0 0.0 0.0 0.00 0.00 0.00 73 1020.4
20260502051003 3 0 0.0 0.0 0.00 0.00 0.00 72 1020.3
20260502050010 3 0 0.0 0.0 0.00 0.00 0.00 70 1020.2
20260502045503 4 0 0.0 0.0 0.00 0.00 0.00 70 1020.1
20260502044508 4 0 0.0 0.0 0.00 0.00 0.00 68 1020.1
20260502043504 5 0 0.0 0.0 0.00 0.00 0.00 67 1020.0
20260502043008 5 0 0.0 0.0 0.00 0.00 0.00 67 1020.0
20260502042503 5 0 0.0 0.0 0.00 0.00 0.00 67 1020.0
20260502042003 5 0 0.0 0.0 0.00 0.00 0.00 66 1020.1
20260502041003 5 0 0.0 0.0 0.00 0.00 0.00 65 1020.0
20260502040504 6 0 0.0 0.0 0.00 0.00 0.00 65 1020.0
20260502040008 6 0 0.0 0.0 0.00 0.00 0.00 64 1020.0
20260502035504 6 0 0.0 0.0 0.00 0.00 0.00 64 1019.9
20260502035003 6 0 0.0 0.0 0.00 0.00 0.00 62 1019.9
20260502034508 6 0 0.0 0.0 0.00 0.00 0.00 62 1019.9
20260502033008 7 0 0.0 0.0 0.00 0.00 0.00 59 1019.9
20260502032503 7 0 0.0 0.0 0.00 0.00 0.00 57 1019.9
20260502032004 7 0 0.0 0.0 0.00 0.00 0.00 56 1019.8
20260502031508 7 0 0.0 0.0 0.00 0.00 0.00 55 1019.7
20260502031004 7 0 0.0 0.0 0.00 0.00 0.00 54 1019.8
20260502030504 8 0 0.0 0.0 0.00 0.00 0.00 54 1019.8
20260502030008 8 0 0.0 0.0 0.00 0.00 0.00 52 1019.7
20260502025504 8 0 0.0 0.0 0.00 0.00 0.00 52 1019.6
20260502025003 8 0 0.0 0.0 0.00 0.00 0.00 52 1019.6
20260502024509 8 0 0.0 0.0 0.00 0.00 0.00 51 1019.6
20260502023504 9 13 0.0 1.6 0.00 0.00 0.00 49 1019.4
20260502023008 9 13 0.0 1.6 0.00 0.00 0.00 49 1019.3
20260502022504 9 14 0.0 3.2 0.00 0.00 0.00 48 1019.3
20260502022003 10 14 0.0 4.8 0.00 0.00 0.00 48 1019.3
20260502021508 10 16 0.0 4.8 0.00 0.00 0.00 48 1019.3
20260502021003 10 17 0.0 3.2 0.00 0.00 0.00 48 1019.2
20260502020503 10 0 0.0 0.0 0.00 0.00 0.00 47 1019.0
20260502020008 10 19 0.0 1.6 0.00 0.00 0.00 46 1019.0
20260502015503 10 15 0.0 6.4 0.00 0.00 0.00 45 1019.0
20260502015003 10 4 0.0 6.4 0.00 0.00 0.00 44 1018.9
20260502014508 11 25 1.6 4.8 0.00 0.00 0.00 44 1018.8
20260502014003 11 58 1.6 8.0 0.00 0.00 0.00 43 1018.8
20260502013504 11 13 1.6 8.0 0.00 0.00 0.00 43 1018.7
20260502013008 11 16 1.6 8.0 0.00 0.00 0.00 43 1018.7
20260502012503 11 12 3.2 8.0 0.00 0.00 0.00 42 1018.7
20260502012004 11 3 3.2 11.3 0.00 0.00 0.00 42 1018.7
20260502011508 11 355 1.6 11.3 0.00 0.00 0.00 41 1018.5
20260502011003 12 9 1.6 9.7 0.00 0.00 0.00 41 1018.5
20260502010008 12 15 3.2 11.3 0.00 0.00 0.00 40 1018.4
20260502005503 12 17 3.2 11.3 0.00 0.00 0.00 40 1018.3
20260502005004 12 7 4.8 14.5 0.00 0.00 0.00 40 1018.2
20260502004508 12 13 4.8 14.5 0.00 0.00 0.00 39 1018.2
20260502004004 12 19 3.2 11.3 0.00 0.00 0.00 39 1018.1
20260502003504 12 5 3.2 9.7 0.00 0.00 0.00 39 1018.1
20260502003008 13 5 4.8 14.5 0.00 0.00 0.00 39 1018.1
20260502002503 13 357 4.8 14.5 0.00 0.00 0.00 38 1018.1
20260502002004 13 357 6.4 25.7 0.00 0.00 0.00 38 1018.0
20260502001507 13 353 4.8 25.7 0.00 0.00 0.00 37 1018.1
20260502001003 13 348 4.8 12.9 0.00 0.00 0.00 37 1018.0
20260502000008 13 355 4.8 14.5 0.00 0.00 0.00 37 1017.9
20260501235005 13 345 6.4 14.5 0.00 0.00 0.00 38 1018.0
20260501234509 13 352 6.4 14.5 0.00 0.00 0.00 37 1018.0
20260501234003 13 5 4.8 14.5 0.00 0.00 0.00 38 1018.0
20260501233503 13 358 4.8 14.5 0.00 0.00 0.00 38 1018.0
20260501233008 13 348 6.4 17.7 0.00 0.00 0.00 38 1017.9
20260501232003 13 344 6.4 19.3 0.00 0.00 0.00 37 1017.9
20260501231510 13 354 6.4 24.1 0.00 0.00 0.00 37 1018.0
20260501231003 13 350 6.4 24.1 0.00 0.00 0.00 38 1017.9
20260501230503 13 341 6.4 17.7 0.00 0.00 0.00 36 1017.8
20260501230009 13 349 4.8 17.7 0.00 0.00 0.00 37 1017.9
20260501225505 13 4 4.8 16.1 0.00 0.00 0.00 38 1017.7